Weather History for KSOW - December, 2012

Change the Weather History Date:

Sunday, December 23, 2012

  Actual Average (KINW) Record (KINW)
Temperature  
Mean Temperature 38 °F 34 °F  
Max Temperature 48 °F 47 °F 68 °F (1955)
Min Temperature 28 °F 20 °F -11 °F (1990)
Degree Days  
Heating Degree Days 27 32  
Month to date heating degree days 689  
Since 1 July heating degree days 1625  
Cooling Degree Days 0 0  
Month to date cooling degree days 0  
Year to date cooling degree days 1208  
Moisture  
Dew Point 17 °F    
Average Humidity 46    
Maximum Humidity 80    
Minimum Humidity 20    
Precipitation  
Precipitation 0.00 in 0.02 in 0.70 in (1945)
Month to date precipitation 0.42  
Year to date precipitation 6.87  
Sea Level Pressure  
Sea Level Pressure 30.14 in    
Wind  
Wind Speed 10 mph (SSW)    
Max Wind Speed 14 mph    
Max Gust Speed 16 mph    
Visibility 10 miles    
Events      
T = Trace of Precipitation, MM = Missing Value Source: NWS Daily Summary

Daily Weather History Graph

Daily Weather History Graph

Search for Another Location

Airport or City:

Trip Planner

Search our weather history database for the weather conditions in past years. The results will help you decide how hot, cold, wet, or windy it might be!

Date:

Astronomy

Dec. 23, 2012 Rise Set
Actual Time 7:23 AM MST 5:15 PM MST
Civil Twilight 6:55 AM MST 5:43 PM MST
Nautical Twilight 6:24 AM MST 6:14 PM MST
Astronomical Twilight 5:53 AM MST 6:45 PM MST
Moon 2:03 PM MST (12/23) 3:14 AM MST (12/23)
Length of Visible Light 10h 47m
Length of Day
9h 52m
Waxing Gibbous, 82% of the Moon is Illuminated
Dec 23
Waxing Gibbous
Dec 28
Full
Jan 4
Last Quarter
Jan 11
New
Jan 18
First Quarter

Hourly Weather History & Observations

Time (MST) Temp. Windchill Dew Point Humidity Pressure Visibility Wind Dir Wind Speed Gust Speed Precip Events Conditions
12:15 AM 33.8 °F 24.8 °F 24.8 °F 70% 30.17 in 10.0 mi South 12.7 mph - N/A   Clear
12:35 AM 35.6 °F 27.5 °F 24.8 °F 65% 30.16 in 10.0 mi South 11.5 mph - N/A   Clear
12:55 AM 35.6 °F 27.5 °F 24.8 °F 65% 30.16 in 10.0 mi South 11.5 mph - N/A   Clear
1:15 AM 33.8 °F 25.8 °F 24.8 °F 70% 30.16 in 10.0 mi South 10.4 mph - N/A   Clear
1:35 AM 35.6 °F 28.0 °F 24.8 °F 65% 30.16 in 10.0 mi South 10.4 mph - N/A   Clear
1:55 AM 35.6 °F 28.0 °F 24.8 °F 65% 30.16 in 10.0 mi South 10.4 mph - N/A   Clear
2:15 AM 35.6 °F 28.6 °F 24.8 °F 65% 30.16 in 10.0 mi South 9.2 mph - N/A   Clear
2:35 AM 35.6 °F 28.0 °F 24.8 °F 65% 30.16 in 10.0 mi South 10.4 mph - N/A   Clear
2:55 AM 35.6 °F 28.6 °F 24.8 °F 65% 30.17 in 10.0 mi South 9.2 mph - N/A   Clear
3:15 AM 32.0 °F 23.6 °F 24.8 °F 75% 30.16 in 10.0 mi South 10.4 mph - N/A   Clear
3:35 AM 32.0 °F 25.6 °F 24.8 °F 75% 30.17 in 10.0 mi South 6.9 mph - N/A   Clear
3:55 AM 32.0 °F 24.2 °F 24.8 °F 75% 30.16 in 10.0 mi South 9.2 mph - N/A   Clear
4:15 AM 32.0 °F 23.6 °F 24.8 °F 75% 30.15 in 10.0 mi South 10.4 mph - N/A   Clear
4:35 AM 33.8 °F 26.4 °F 24.8 °F 70% 30.15 in 10.0 mi South 9.2 mph - N/A   Clear
4:55 AM 32.0 °F 24.8 °F 24.8 °F 75% 30.15 in 10.0 mi South 8.1 mph - N/A   Clear
5:15 AM 32.0 °F 25.6 °F 24.8 °F 75% 30.16 in 10.0 mi South 6.9 mph - N/A   Clear
5:35 AM 32.0 °F 25.6 °F 24.8 °F 75% 30.16 in 10.0 mi South 6.9 mph - N/A   Clear
5:55 AM 32.0 °F 24.8 °F 24.8 °F 75% 30.16 in 10.0 mi South 8.1 mph - N/A   Clear
6:15 AM 32.0 °F 24.8 °F 24.8 °F 75% 30.15 in 10.0 mi South 8.1 mph - N/A   Clear
6:35 AM 32.0 °F 23.6 °F 24.8 °F 75% 30.15 in 10.0 mi South 10.4 mph - N/A   Clear
6:55 AM 32.0 °F 26.4 °F 23.0 °F 69% 30.17 in 10.0 mi South 5.8 mph - N/A   Clear
7:15 AM 28.4 °F 22.2 °F 23.0 °F 80% 30.18 in 10.0 mi SSW 5.8 mph - N/A   Clear
7:35 AM 30.2 °F 22.6 °F 23.0 °F 75% 30.19 in 10.0 mi South 8.1 mph - N/A   Clear
7:55 AM 32.0 °F 24.8 °F 24.8 °F 75% 30.17 in 10.0 mi South 8.1 mph - N/A   Clear
8:15 AM 33.8 °F 24.8 °F 23.0 °F 65% 30.17 in 10.0 mi South 12.7 mph - N/A   Clear
8:35 AM 37.4 °F 30.3 °F 23.0 °F 56% 30.16 in 10.0 mi South 10.4 mph 16.1 mph N/A   Clear
8:55 AM 37.4 °F 30.3 °F 24.8 °F 60% 30.17 in 10.0 mi South 10.4 mph - N/A   Clear
9:15 AM 37.4 °F 29.8 °F 23.0 °F 56% 30.17 in 10.0 mi South 11.5 mph - N/A   Clear
9:35 AM 39.2 °F 32.5 °F 23.0 °F 52% 30.18 in 10.0 mi SSW 10.4 mph - N/A   Clear
9:55 AM 42.8 °F 38.6 °F 15.8 °F 34% 30.21 in 10.0 mi SW 6.9 mph - N/A   Clear
10:15 AM 44.6 °F 38.4 °F 14.0 °F 29% 30.20 in 10.0 mi SW 12.7 mph - N/A   Clear
10:35 AM 44.6 °F 38.8 °F 8.6 °F 23% 30.21 in 10.0 mi SSW 11.5 mph - N/A   Clear
10:55 AM 44.6 °F 38.8 °F 6.8 °F 21% 30.21 in 10.0 mi SW 11.5 mph - N/A   Clear
11:15 AM 44.6 °F 38.4 °F 8.6 °F 23% 30.20 in 10.0 mi SW 12.7 mph - N/A   Clear
11:35 AM 46.4 °F 41.1 °F 8.6 °F 22% 30.18 in 10.0 mi SW 11.5 mph - N/A   Clear
11:55 AM 46.4 °F 43.5 °F 12.2 °F 25% 30.17 in 10.0 mi SSW 5.8 mph - N/A   Clear
12:15 PM 48.2 °F - 8.6 °F 20% 30.16 in 10.0 mi WSW 6.9 mph - N/A   Clear
12:35 PM 48.2 °F - 8.6 °F 20% 30.15 in 10.0 mi SW 9.2 mph - N/A   Clear
12:55 PM 48.2 °F - 8.6 °F 20% 30.14 in 10.0 mi SW 5.8 mph - N/A   Clear
1:15 PM 48.2 °F - 8.6 °F 20% 30.13 in 10.0 mi SSW 8.1 mph - N/A   Clear
1:35 PM 48.2 °F - 10.4 °F 22% 30.13 in 10.0 mi WSW 5.8 mph - N/A   Clear
1:55 PM 48.2 °F - 14.0 °F 25% 30.12 in 10.0 mi SW 8.1 mph - N/A   Clear
2:15 PM 48.2 °F - 14.0 °F 25% 30.12 in 10.0 mi SW 10.4 mph - N/A   Clear
2:35 PM 48.2 °F - 12.2 °F 24% 30.11 in 10.0 mi SW 11.5 mph - N/A   Clear
2:55 PM 48.2 °F - 12.2 °F 24% 30.10 in 10.0 mi SW 10.4 mph - N/A   Clear
3:15 PM 48.2 °F - 14.0 °F 25% 30.10 in 10.0 mi SSW 11.5 mph - N/A   Clear
3:35 PM 48.2 °F - 15.8 °F 27% 30.11 in 10.0 mi SW 13.8 mph - N/A   Clear
3:55 PM 46.4 °F 40.4 °F 14.0 °F 27% 30.11 in 10.0 mi SSW 13.8 mph - N/A   Clear
4:15 PM 44.6 °F 39.2 °F 12.2 °F 27% 30.11 in 10.0 mi SSW 10.4 mph - N/A   Clear
4:35 PM 44.6 °F 38.8 °F 6.8 °F 21% 30.10 in 10.0 mi SSW 11.5 mph - N/A   Clear
4:55 PM 42.8 °F 36.6 °F 6.8 °F 23% 30.10 in 10.0 mi SSW 11.5 mph - N/A   Clear
5:15 PM 41.0 °F 35.8 °F 8.6 °F 26% 30.09 in 10.0 mi SSW 8.1 mph - N/A   Clear
5:35 PM 39.2 °F 35.0 °F 8.6 °F 28% 30.09 in 10.0 mi SW 5.8 mph - N/A   Clear
5:55 PM 37.4 °F 32.8 °F 12.2 °F 36% 30.10 in 10.0 mi SSW 5.8 mph - N/A   Clear
6:15 PM 37.4 °F 32.8 °F 12.2 °F 36% 30.10 in 10.0 mi SSW 5.8 mph - N/A   Clear
6:35 PM 35.6 °F 29.2 °F 14.0 °F 41% 30.10 in 10.0 mi SSW 8.1 mph - N/A   Clear
6:55 PM 35.6 °F 29.2 °F 14.0 °F 41% 30.09 in 10.0 mi South 8.1 mph - N/A   Clear
7:15 PM 35.6 °F 28.6 °F 14.0 °F 41% 30.09 in 10.0 mi South 9.2 mph - N/A   Clear
7:35 PM 35.6 °F 29.9 °F 14.0 °F 41% 30.09 in 10.0 mi South 6.9 mph - N/A   Clear
7:55 PM 35.6 °F 29.2 °F 14.0 °F 41% 30.12 in 10.0 mi SSW 8.1 mph - N/A   Clear
8:15 PM 35.6 °F 29.9 °F 14.0 °F 41% 30.12 in 10.0 mi SSW 6.9 mph - N/A   Clear
8:35 PM 35.6 °F 29.9 °F 10.4 °F 35% 30.12 in 10.0 mi SSW 6.9 mph - N/A   Clear
8:55 PM 35.6 °F 29.2 °F 14.0 °F 41% 30.12 in 10.0 mi South 8.1 mph - N/A   Clear
9:15 PM 35.6 °F 28.6 °F 14.0 °F 41% 30.11 in 10.0 mi South 9.2 mph - N/A   Clear
9:35 PM 35.6 °F 28.0 °F 14.0 °F 41% 30.10 in 10.0 mi South 10.4 mph - N/A   Clear
9:55 PM 35.6 °F 28.0 °F 15.8 °F 44% 30.09 in 10.0 mi South 10.4 mph - N/A   Clear
10:15 PM 35.6 °F 28.6 °F 15.8 °F 44% 30.09 in 10.0 mi South 9.2 mph - N/A   Partly Cloudy
10:35 PM 35.6 °F 29.2 °F 14.0 °F 41% 30.07 in 10.0 mi South 8.1 mph - N/A   Mostly Cloudy
10:55 PM 37.4 °F 30.3 °F 14.0 °F 38% 30.07 in 10.0 mi South 10.4 mph - N/A   Overcast
11:15 PM 37.4 °F 31.4 °F 12.2 °F 36% 30.08 in 10.0 mi South 8.1 mph - N/A   Overcast
11:35 PM 37.4 °F 30.8 °F 10.4 °F 33% 30.08 in 10.0 mi SSW 9.2 mph - N/A   Mostly Cloudy
11:55 PM 37.4 °F 30.3 °F 10.4 °F 33% 30.07 in 10.0 mi South 10.4 mph - N/A   Mostly Cloudy